Weather History for Marrakech, Morocco

Change the Weather History Date:

Sunday, February 24, 2013

  Actual Average Record
Temperature  
Mean Temperature 58 °F -  
Max Temperature 69 °F 72 °F 80 °F (2002)
Min Temperature 46 °F 49 °F 43 °F (2014)
Degree Days  
Heating Degree Days 8    
Growing Degree Days 8 (Base 50)    
Moisture  
Dew Point 45 °F    
Average Humidity 67    
Maximum Humidity 100    
Minimum Humidity 28    
Precipitation  
Precipitation 0.00 in 0.05 in - ()
Sea Level Pressure  
Sea Level Pressure 30.16 in    
Wind  
Wind Speed 7 mph ()    
Max Wind Speed 13 mph    
Max Gust Speed -    
Visibility 6.1 miles    
Events      
Averages and records for this station are not official NWS values.
T = Trace of Precipitation, MM = Missing Value Source: Averaged Metar Reports

Daily Weather History Graph

Daily Weather History Graph

Search for Another Location

Airport:

Trip Planner

Search our weather history database for the weather conditions in past years. The results will help you decide how hot, cold, wet, or windy it might be!

Date:

Astronomy

Feb. 24, 2013 Rise Set
Actual Time 7:04 AM WET 6:26 PM WET
Civil Twilight 6:40 AM WET 6:50 PM WET
Nautical Twilight 6:11 AM WET 7:19 PM WET
Astronomical Twilight 5:43 AM WET 7:47 PM WET
Moon 5:24 PM WET (2/24) 5:51 AM WET (2/24)
Length of Visible Light 12h 10m
Length of Day
11h 21m
Waxing Gibbous, 98% of the Moon is Illuminated
Feb 24
Waxing Gibbous
Feb 25
Full
Mar 4
Last Quarter
Mar 11
New
Mar 19
First Quarter

Hourly Weather History & Observations

Time (WET) Temp. Windchill Dew Point Humidity Pressure Visibility Wind Dir Wind Speed Gust Speed Precip Events Conditions
12:00 AM 52 °F - 48 °F 81% 30.22 in 6 mi ENE 5.8 mph - -   Partly Cloudy
12:00 AM 51.8 °F - 48.2 °F 88% 30.21 in 6.2 mi ENE 5.8 mph - N/A   Scattered Clouds
12:30 AM 51.8 °F - 48.2 °F 88% 30.21 in 6.2 mi ENE 4.6 mph - N/A   Scattered Clouds
1:00 AM 51.8 °F - 48.2 °F 88% 30.21 in 6.2 mi East 4.6 mph - N/A   Scattered Clouds
1:30 AM 50.0 °F - 48.2 °F 94% 30.21 in 6.2 mi East 4.6 mph - N/A   Scattered Clouds
2:00 AM 50.0 °F - 48.2 °F 94% 30.21 in 6.2 mi East 5.8 mph - N/A   Scattered Clouds
2:30 AM 51.8 °F - 48.2 °F 88% 30.18 in 6.2 mi ENE 5.8 mph - N/A   Scattered Clouds
3:00 AM 51 °F - 48 °F 87% 30.21 in 6 mi ENE 4.6 mph - -   Partly Cloudy
3:00 AM 51.8 °F - 48.2 °F 88% 30.18 in 6.2 mi ENE 4.6 mph - N/A   Scattered Clouds
3:30 AM 51.8 °F - 48.2 °F 88% 30.18 in 6.2 mi ENE 6.9 mph - N/A   Scattered Clouds
4:00 AM 51.8 °F - 48.2 °F 88% 30.18 in 6.2 mi ENE 6.9 mph - N/A   Scattered Clouds
4:30 AM 51.8 °F - 48.2 °F 88% 30.15 in 6.2 mi ENE 5.8 mph - N/A   Mostly Cloudy
5:00 AM 50.0 °F - 46.4 °F 87% 30.15 in 6.2 mi East 5.8 mph - N/A   Mostly Cloudy
5:30 AM 48.2 °F - 46.4 °F 93% 30.15 in 6.2 mi ENE 5.8 mph - N/A   Mostly Cloudy
6:00 AM 47 °F - 46 °F 96% 30.21 in 6 mi East 4.6 mph - -   Partly Cloudy
6:00 AM 48.2 °F - 46.4 °F 93% 30.18 in 6.2 mi East 4.6 mph - N/A   Scattered Clouds
6:30 AM 46.4 °F 43.5 °F 46.4 °F 100% 30.18 in 6.2 mi East 5.8 mph - N/A   Scattered Clouds
7:00 AM 46.4 °F 42.4 °F 44.6 °F 93% 30.18 in - East 8.1 mph - N/A   Clear
7:30 AM 46.4 °F 42.9 °F 44.6 °F 93% 30.18 in 5.0 mi East 6.9 mph - N/A   Unknown
8:00 AM 48.2 °F - 46.4 °F 93% 30.18 in 5.0 mi East 5.8 mph - N/A   Unknown
8:30 AM 51.8 °F - 48.2 °F 88% 30.21 in - ENE 9.2 mph - N/A   Clear
9:00 AM 54 °F - 48 °F 74% 30.22 in 6 mi East 11.5 mph - -   Scattered Clouds
9:00 AM 53.6 °F - 48.2 °F 82% 30.21 in 6.2 mi ENE 11.5 mph - N/A   Partly Cloudy
9:30 AM 55.4 °F - 48.2 °F 77% 30.21 in 6.2 mi ENE 11.5 mph - N/A   Scattered Clouds
10:00 AM 55.4 °F - 48.2 °F 77% 30.21 in 6.2 mi East 11.5 mph - N/A   Scattered Clouds
10:30 AM 57.2 °F - 48.2 °F 72% 30.21 in 6.2 mi East 12.7 mph - N/A   Scattered Clouds
11:00 AM 59.0 °F - 48.2 °F 67% 30.21 in 6.2 mi East 12.7 mph - N/A   Scattered Clouds
11:30 AM 60.8 °F - 46.4 °F 59% 30.18 in 6.2 mi East 12.7 mph - N/A   Scattered Clouds
12:00 PM 62 °F - 46 °F 45% 30.17 in 6 mi ENE 9.2 mph - -   Partly Cloudy
12:00 PM 60.8 °F - 46.4 °F 59% 30.18 in 6.2 mi ENE 10.4 mph - N/A   Scattered Clouds
12:30 PM 62.6 °F - 46.4 °F 55% 30.18 in 6.2 mi NE 8.1 mph - N/A   Scattered Clouds
1:00 PM 64.4 °F - 44.6 °F 49% 30.15 in 6.2 mi NE 6.9 mph - N/A   Partly Cloudy
1:30 PM 66.2 °F - 42.8 °F 43% 30.15 in 6.2 mi Variable 5.8 mph - N/A   Partly Cloudy
2:00 PM 68.0 °F - 42.8 °F 40% 30.15 in 6.2 mi NNE 5.8 mph - N/A   Partly Cloudy
2:30 PM 68.0 °F - 42.8 °F 40% 30.12 in 6.2 mi NE 5.8 mph - N/A   Partly Cloudy
3:00 PM 69 °F - 44 °F 28% 30.08 in 6 mi North 5.8 mph - -  
3:00 PM 69.8 °F - 42.8 °F 38% 30.12 in - NNE 5.8 mph - N/A   Clear
3:30 PM 69.8 °F - 42.8 °F 38% 30.12 in - NE 9.2 mph - N/A   Clear
4:00 PM 68.0 °F - 41.0 °F 37% 30.12 in - North 9.2 mph - N/A   Clear
4:30 PM 68.0 °F - 41.0 °F 37% 30.09 in - NNE 9.2 mph - N/A   Clear
5:00 PM 68.0 °F - 41.0 °F 37% 30.09 in - NE 10.4 mph - N/A   Clear
5:30 PM 66.2 °F - 41.0 °F 40% 30.12 in - NNE 11.5 mph - N/A   Clear
6:00 PM 65 °F - 40 °F 28% 30.09 in 6 mi NNE 11.5 mph - -  
6:00 PM 66.2 °F - 41.0 °F 40% 30.12 in - NE 11.5 mph - N/A   Clear
6:30 PM 62.6 °F - 39.2 °F 42% 30.12 in - NE 10.4 mph - N/A   Clear
7:00 PM 60.8 °F - 39.2 °F 45% 30.12 in - NE 9.2 mph - N/A   Clear
7:30 PM 59.0 °F - 39.2 °F 48% 30.15 in - NE 8.1 mph - N/A   Clear
8:00 PM 59.0 °F - 41.0 °F 51% 30.15 in - NE 8.1 mph - N/A   Clear
8:30 PM 57.2 °F - 41.0 °F 55% 30.15 in - NE 9.2 mph - N/A   Clear
9:00 PM 57 °F - 42 °F 47% 30.16 in 6 mi NE 10.4 mph - -  
9:00 PM 57.2 °F - 42.8 °F 59% 30.15 in - NE 10.4 mph - N/A   Clear
9:30 PM 55.4 °F - 42.8 °F 63% 30.15 in - NE 8.1 mph - N/A   Clear
10:00 PM 53.6 °F - 42.8 °F 67% 30.15 in - ENE 6.9 mph - N/A   Clear
10:30 PM 51.8 °F - 42.8 °F 71% 30.15 in - ENE 8.1 mph - N/A   Clear
11:00 PM 50.0 °F - 42.8 °F 76% 30.15 in - East 6.9 mph - N/A   Clear
11:30 PM 50.0 °F - 44.6 °F 82% 30.15 in - East 8.1 mph - N/A   Clear